User: anonymous   Login
Location: Oshawa
(43.9000°N, 78.8670°W)
Time: 14:19:18
(UTC-05:00)
Language:

Iridium 46 - Orbit

View from above orbital plane
View from above orbital plane
View from above satellite
View from above satellite

Ground track
Ground track

The orbit data is extracted from the following two-line orbital elements,

1 24905U 97043C   17019.54664998  .00000049  00000-0  10386-4 0  9997
2 24905  86.2844 318.0184 0002062  79.0270 281.1158 14.34213285 16527
Epoch (UTC): 19 January 2017 13:07:10
Eccentricity: 0.0002062
inclination: 86.2844°
perigee height: 776 km
apogee height: 779 km
right ascension of ascending node: 318.0184°
argument of perigee: 79.0270°
revolutions per day: 14.34213285
mean anomaly at epoch: 281.1158°
orbit number at epoch: 1652

The dashed part of the orbit path shows where the satellite is in the earth's shadow,  

DLR